Greenland, New Hampshire, United States (03840)
Lat: 43.04N, Lon: 70.83W
Wx Zone: NHZ014
Local Info
Past Weather Observations for Tuesday, October 21, 2014

NOTE: This archive is for the closest National Weather Service station to Greenland. Information may differ from the station used for current weather conditions.

Click here for Long-term Archive

Time Weather Temperature Dewpoint Humidity Pressure Winds Precip Visibility
23:58
Overcast
48°F / 9°C 46°F / 8°C 94% 30.01 in
(1016 mb)
N 11.5 mph
(N 19 kph)
- 8SM
22:58
Overcast
50°F / 10°C 46°F / 8°C 88% 30.01 in
(1016 mb)
N 16.1 mph
(N 26 kph)
- 8SM
21:58
Overcast
50°F / 10°C 48°F / 9°C 94% 30.01 in
(1016 mb)
N 11.5 mph
(N 19 kph)
0.00 in
(0.00 mm)
7SM
21:46
Overcast
50°F / 10°C 48°F / 9°C 94% 30.01 in
(1016 mb)
N 12.7 mph
(N 20 kph)
- 7SM
20:58
Overcast
Light Rain
50°F / 10°C 48°F / 9°C 94% 30.01 in
(1016 mb)
N 13.8 mph
(N 22 kph)
0.01 in
(0.25 mm)
7SM
19:58
Overcast
Light Rain
52°F / 11°C 50°F / 10°C 94% 29.98 in
(1015 mb)
N 13.8 mph
(N 22 kph)
0.01 in
(0.25 mm)
7SM
18:58
Overcast
Light Rain
52°F / 11°C 50°F / 10°C 94% 29.98 in
(1015 mb)
N 11.5 mph
(N 19 kph)
0.01 in
(0.25 mm)
7SM
18:14
Overcast
Light Rain
52°F / 11°C 50°F / 10°C 94% 29.98 in
(1015 mb)
N 11.5 mph
(N 19 kph)
- 7SM
17:58
Overcast
54°F / 12°C 52°F / 11°C 94% 29.98 in
(1015 mb)
N 10.4 mph
(N 17 kph)
- 10SM
17:38
Overcast
54°F / 12°C 52°F / 11°C 94% 29.98 in
(1015 mb)
N 10.4 mph
(N 17 kph)
- 10SM
16:58
Overcast
54°F / 12°C 52°F / 11°C 94% 29.95 in
(1014 mb)
N 6.9 mph
(N 11 kph)
- 10SM
15:58
Overcast
55°F / 13°C 54°F / 12°C 94% 29.95 in
(1014 mb)
N 6.9 mph
(N 11 kph)
0.00 in
(0.00 mm)
10SM
15:28
Overcast
57°F / 14°C 55°F / 13°C 94% 29.95 in
(1014 mb)
NE 5.8 mph
(NE 9 kph)
- 10SM
14:58
Overcast
Light Rain
57°F / 14°C 54°F / 12°C 88% 29.95 in
(1014 mb)
ESE 5.8 mph
(ESE 9 kph)
0.03 in
(0.76 mm)
4SM
14:43
Overcast
Light Rain
57°F / 14°C 54°F / 12°C 88% 29.95 in
(1014 mb)
ESE 8.1 mph
(ESE 13 kph)
- 6SM
13:58
Overcast
57°F / 14°C 54°F / 12°C 88% 29.95 in
(1014 mb)
E 6.9 mph
(E 11 kph)
- 10SM
12:58
Overcast
59°F / 15°C 54°F / 12°C 82% 29.95 in
(1014 mb)
E 8.1 mph
(E 13 kph)
- 10SM
11:58
Overcast
57°F / 14°C 54°F / 12°C 88% 29.95 in
(1014 mb)
ENE 5.8 mph
(ENE 9 kph)
- 10SM
10:58
Overcast
Showers In Vicinity
57°F / 14°C 52°F / 11°C 82% 29.98 in
(1015 mb)
NE 5.8 mph
(NE 9 kph)
- 10SM
10:13
Overcast
Showers In Vicinity
55°F / 13°C 50°F / 10°C 82% 29.98 in
(1015 mb)
NE 5.8 mph
(NE 9 kph)
- 10SM
09:58
Overcast
Showers In Vicinity
54°F / 12°C 48°F / 9°C 82% 29.98 in
(1015 mb)
NE 6.9 mph
(NE 11 kph)
- 10SM
08:58
Overcast
52°F / 11°C 45°F / 7°C 77% 30.01 in
(1016 mb)
NNE 5.8 mph
(NNE 9 kph)
- 10SM
08:21
Overcast
50°F / 10°C 45°F / 7°C 82% 30.01 in
(1016 mb)
N 4.6 mph
(N 7 kph)
- 10SM
07:58
Overcast
50°F / 10°C 43°F / 6°C 76% 30.01 in
(1016 mb)
NE 8.1 mph
(NE 13 kph)
- 10SM
06:58
Overcast
48°F / 9°C 41°F / 5°C 76% 30.01 in
(1016 mb)
NE 5.8 mph
(NE 9 kph)
- 10SM
06:43
Overcast
48°F / 9°C 41°F / 5°C 76% 30.01 in
(1016 mb)
NNE 3.5 mph
(NNE 6 kph)
- 10SM
05:58
Overcast
46°F / 8°C 41°F / 5°C 82% 29.98 in
(1015 mb)
NE 1.2 mph
(NE 2 kph)
- 10SM
04:58
Mostly Cloudy
46°F / 8°C 39°F / 4°C 76% 30.01 in
(1016 mb)
NE 2.3 mph
(NE 4 kph)
- 10SM
03:58
Overcast
46°F / 8°C 39°F / 4°C 76% 30.01 in
(1016 mb)
Calm - 10SM
02:58
Overcast
46°F / 8°C 39°F / 4°C 76% 29.98 in
(1015 mb)
Calm - 10SM
01:58
Overcast
45°F / 7°C 39°F / 4°C 81% 30.01 in
(1016 mb)
Calm - 10SM
00:58
Overcast
45°F / 7°C 37°F / 3°C 76% 30.01 in
(1016 mb)
SE 1.2 mph
(SE 2 kph)
- 10SM
Time Weather Temperature Dewpoint Humidity Pressure Winds Precip Visibility


Weather for websites

WeatherForYou.com, LLC is not responsible for any damages or problems caused by this service. Current weather conditions are obtained from the closest station including government and personal stations which may have varying degrees of accuracy. Weather forecasts are derived from the NOAA NDFD. Like all things, this site belongs to Jesus Christ... He just trusts me to maintain it. If you have any questions or comments email webmaster@weatherforyou.com

Copyright © 2014, WeatherForYou.com LLC. All rights reserved.